Regional Weather Roundup
Issued by NWS

Home | Current Version | Previous Version | Text Only | Print | Product List | Glossary Off
Versions: 1 2 3 4 5 6 7 8 9 10 11 12 13 14 15 16 17 18 19 20 21 22 23 24 25 26 27 28 29 30 31 32 33 34 35 36 37 38 39 40 41 42 43 44 45 46 47 48 49 50

356
ASUS43 KLSX 181507
RWRMO

WEATHER SUMMARY FOR MISSOURI
NATIONAL WEATHER SERVICE SPRINGFIELD MO
900 AM CST WED JAN 18 2017

NOTE: "FAIR" INDICATES FEW OR NO CLOUDS BELOW 12,000 FEET WITH NO
       SIGNIFICANT WEATHER AND/OR OBSTRUCTIONS TO VISIBILITY.
       CURRENT SKY AND/OR WEATHER CONDITIONS ARE NOT AVAILABLE FOR
       CHILLICOTHE AND FARMINGTON.

MOZ001>031-035>038-043-044-053-054-181600-
...NORTHERN AND WESTERN MISSOURI...

CITY           SKY/WX    TMP DP  RH WIND       PRES   REMARKS
KANSAS CTY INT MOSUNNY   31  29  92 S7        30.13S FOG     WCI  24
KANSAS C DTWN  CLOUDY    32  32 100 CALM      30.16R FOG
LEE`S SUMMIT   FOG       32  32 100 S10       30.17R VSB 1/4 WCI  24
ST JOSEPH      SUNNY     32  30  92 SE3       30.14S
CHILLICOTHE      N/A     32  32 100 S10       30.19R WCI  24
KIRKSVILLE     CLOUDY    34  34 100 S8        30.17R FOG     WCI  27

$$
MOZ066>068-077>081-088>096-101>105-181600-
...SOUTHWEST MISSOURI...

CITY           SKY/WX    TMP DP  RH WIND       PRES   REMARKS
SPRINGFIELD    CLOUDY    37  35  92 SE7       30.18F FOG
JOPLIN         CLOUDY    36  36 100 E7        30.18F FOG
BRANSON        FOG       36  36 100 CALM      30.19F VSB 1/8

$$
MOZ032>034-039>042-045>050-055>058-069>072-181600-
...CENTRAL MISSOURI...

CITY           SKY/WX    TMP DP  RH WIND       PRES   REMARKS
COLUMBIA       CLOUDY    36  33  89 S10       30.22R WCI  28
JEFFERSON CITY CLOUDY    37  32  82 SE3       30.23S
ROLLA          CLOUDY    35  33  92 VRB3      30.20F
SEDALIA        CLOUDY    37  36  96 S9        30.21R FOG
WHITEMAN AFB   CLOUDY    36  36 100 S9        30.18S FOG     WCI  29
WARRENSBURG    CLOUDY    36  36 100 S10       30.19S FOG     WCI  28
OSAGE BEACH    CLOUDY    37  34  89 S7        30.23S

$$
MOZ051-052-059>065-181600-
...EAST CENTRAL MISSOURI...

CITY           SKY/WX    TMP DP  RH WIND       PRES   REMARKS
ST LOUIS INTL  CLOUDY    40  31  70 SW6       30.25R
SPIRIT OF STL  CLOUDY    38  33  82 CALM      30.25R
ST CHARLES     CLOUDY    38  32  79 SW6       30.25R

$$
MOZ072>076-082>087-097>100-106>115-181600-
...SOUTH CENTRAL AND SOUTHEAST MISSOURI...

CITY           SKY/WX    TMP DP  RH WIND       PRES   REMARKS
CAPE GIRARDEAU CLOUDY    41  35  79 N6        30.25S
FARMINGTON     CLOUDY    36  33  89 CALM      30.24S
POPLAR BLUFF   CLOUDY    42  38  85 E3        30.26R
WEST PLAINS    FOG       36  35  96 E6        30.22S VSB 3/4

$$



USA.gov is the U.S. government's official web portal to all federal, state and local government web resources and services.